1508022000.82,39136,12.63,74862.0,3.41,-9.97,-10.53,0,*45
1508022002.07,39137,12.63,74860.5,3.41,-10.09,-10.63,0,*78
1508022003.33,39138,12.63,74860.5,3.41,-10.09,-10.75,0,*70
1508022004.58,39139,12.63,74858.0,3.41,-10.05,-10.75,0,*7D
1508022005.77,39140,12.63,74856.3,3.39,-9.97,-10.45,0,*4C
1508022006.99,39141,12.63,74856.5,3.41,-9.93,-10.53,0,*41
1508022008.2,39142,12.63,74856.8,3.39,-9.57,-10.23,0,*42
1508022009.39,39143,12.63,74858.0,3.39,-9.97,-10.53,0,*48
1508022010.61,39144,12.69,74860.0,3.39,-10.09,-10.75,0,*74
1508022011.85,39145,12.63,74856.3,3.41,-10.19,-10.89,0,*78
1508022013.11,39146,12.63,74856.0,3.41,-10.19,-10.79,0,*74
1508022014.37,39147,12.63,74860.5,3.41,-10.19,-10.79,0,*75
1508022015.6,39148,12.63,74856.3,3.39,-10.23,-10.79,0,*7C
1508022016.83,39149,12.63,74856.8,3.39,-10.19,-10.67,0,*7B
1508022018.05,39150,12.63,74856.8,3.41,-9.93,-10.53,0,*41
1508022019.24,39151,12.63,74858.3,3.39,-9.93,-10.49,0,*44
1508022020.5,39152,12.63,74856.3,3.41,-10.05,-10.67,0,*73
1508022021.69,39153,12.63,74858.3,3.39,-9.97,-10.53,0,*49
1508022022.88,39154,12.63,74860.0,3.39,-9.97,-10.49,0,*45
1508022024.1,39155,12.63,74858.8,3.39,-10.09,-10.75,0,*74
1508022025.32,39156,12.69,74860.8,3.39,-10.09,-10.75,0,*77
1508022026.51,39157,12.63,74858.3,3.39,-9.97,-10.53,0,*4D
1508022027.71,39158,12.63,74858.5,3.39,-9.79,-10.45,0,*45
1508022028.9,39159,12.63,74856.5,3.39,-9.93,-10.49,0,*4C
1508022030.13,39160,12.63,74858.0,3.39,-10.09,-10.67,0,*71
1508022031.35,39161,12.63,74858.8,3.39,-10.05,-10.67,0,*7C
1508022032.54,39162,12.63,74862.3,3.39,-9.93,-10.49,0,*44
1508022033.76,39163,12.69,74860.5,3.39,-9.83,-10.45,0,*48
1508022034.98,39164,12.63,74860.8,3.39,-9.93,-10.63,0,*4A
1508022036.2,39165,12.63,74860.0,3.39,-10.09,-10.79,0,*7B
1508022037.42,39166,12.69,74862.8,3.39,-10.05,-10.67,0,*7B
1508022038.64,39167,12.63,74856.3,3.39,-9.83,-10.45,0,*4C
1508022039.86,39168,12.63,74862.0,3.39,-9.97,-10.67,0,*46
1508022041.12,39169,12.69,74860.0,3.41,-10.19,-10.67,0,*76
1508022042.35,39170,12.69,74860.5,3.39,-10.09,-10.67,0,*70
1508022043.58,39171,12.63,74858.3,3.41,-9.67,-10.31,0,*4D
1508022044.79,39172,12.63,74858.0,3.39,-9.83,-10.49,0,*44
1508022045.98,39173,12.69,74862.5,3.39,-9.93,-10.49,0,*44
1508022047.17,39174,12.63,74856.8,3.39,-9.97,-10.49,0,*47
1508022048.44,39175,12.63,74856.0,3.41,-10.19,-10.67,0,*7B
1508022049.63,39176,12.63,74860.8,3.39,-9.97,-10.53,0,*4E
1508022050.86,39177,12.63,74860.0,3.39,-10.05,-10.67,0,*7B
1508022052.1,39178,12.63,74858.3,3.41,-9.83,-10.45,0,*4D
1508022053.32,39179,12.63,74858.0,3.37,-9.89,-10.53,0,*40
1508022054.54,39180,12.63,74858.3,3.41,-9.93,-10.49,0,*47
1508022055.76,39181,12.63,74862.3,3.41,-9.93,-10.45,0,*4A
1508022056.95,39182,12.63,74858.0,3.39,-9.93,-10.49,0,*4A
1508022058.17,39183,12.63,74862.8,3.39,-10.09,-10.67,0,*7C
1508022059.39,39184,12.63,74856.8,3.39,-9.83,-10.45,0,*41
1508022060.61,39185,12.63,74858.8,3.39,-10.09,-10.67,0,*7A
1508022061.81,39186,12.63,74860.8,3.39,-10.09,-10.89,0,*79
1508022063.04,39187,12.63,74858.0,3.39,-10.19,-10.79,0,*76
1508022064.26,39188,12.63,74858.5,3.39,-10.23,-10.79,0,*70
1508022065.49,39189,12.63,74858.8,3.39,-10.09,-10.67,0,*76
1508022066.68,39190,12.63,74858.5,3.39,-9.93,-10.45,0,*45
1508022067.9,39191,12.63,74858.8,3.39,-9.83,-10.45,0,*45
1508022069.11,39192,12.63,74856.8,3.39,-9.83,-10.45,0,*46
1508022070.33,39193,12.63,74860.8,3.39,-9.97,-10.67,0,*42
1508022071.56,39194,12.69,74860.5,3.39,-10.05,-10.67,0,*76
1508022072.78,39195,12.63,74856.3,3.37,-10.01,-10.57,0,*7E
1508022074.03,39196,12.63,74858.5,3.37,-10.09,-10.71,0,*71
1508022075.25,39197,12.63,74862.5,3.37,-10.09,-10.57,0,*74
1508022076.47,39198,12.63,74856.8,3.37,-10.01,-10.57,0,*73
1508022077.69,39199,12.63,74860.8,3.37,-9.89,-10.53,0,*4E
1508022078.95,39200,12.69,74862.0,3.37,-10.15,-10.67,0,*77
1508022080.17,39201,12.69,74860.8,3.37,-9.89,-10.49,0,*47
1508022081.39,39202,12.63,74856.8,3.37,-10.09,-10.57,0,*7B
1508022082.61,39203,12.63,74856.3,3.37,-9.97,-10.49,0,*4A
1508022083.83,39204,12.63,74856.5,3.37,-9.75,-10.49,0,*41
1508022085.05,39205,12.63,74858.8,3.37,-9.97,-10.53,0,*47
1508022086.29,39206,12.63,74860.5,3.37,-9.83,-10.49,0,*4A
1508022087.51,39207,12.69,74862.0,3.37,-9.89,-10.49,0,*41
1508022088.73,39208,12.63,74858.8,3.35,-9.83,-10.35,0,*4D
1508022089.94,39209,12.63,74856.5,3.39,-9.71,-10.35,0,*4D
1508022091.14,39210,12.63,74858.8,3.39,-9.71,-10.31,0,*41
1508022092.35,39211,12.63,74860.8,3.39,-9.57,-10.23,0,*47
1508022093.56,39212,12.63,74858.8,3.39,-9.79,-10.35,0,*4F
1508022094.76,39213,12.63,74856.3,3.39,-9.71,-10.31,0,*42
1508022095.96,39214,12.63,74856.0,3.39,-9.79,-10.35,0,*49
1508022097.16,39215,12.63,74858.5,3.39,-9.71,-10.31,0,*44
1508022098.37,39216,12.63,74860.3,3.39,-9.79,-10.35,0,*4B
1508022099.56,39217,12.63,74858.8,3.39,-9.93,-10.53,0,*4E
1508022100.75,39218,12.63,74858.5,3.39,-9.97,-10.49,0,*4E
1508022101.97,39219,12.63,74858.8,3.39,-9.83,-10.45,0,*46
1508022103.17,39220,12.63,74856.5,3.39,-9.67,-10.35,0,*41
1508022104.42,39221,12.63,74856.0,3.37,-9.61,-10.35,0,*48
1508022105.63,39222,12.63,74856.3,3.39,-9.57,-10.23,0,*47
1508022106.84,39223,12.63,74858.0,3.39,-9.71,-10.35,0,*45
1508022108.05,39224,12.63,74858.5,3.39,-9.97,-10.63,0,*49
1508022109.28,39225,12.63,74858.3,3.39,-10.09,-10.63,0,*77
1508022110.47,39226,12.63,74856.5,3.39,-9.79,-10.45,0,*4F
1508022111.69,39227,12.63,74858.0,3.39,-9.57,-10.23,0,*42
1508022112.88,39228,12.63,74858.3,3.39,-9.97,-10.53,0,*46
1508022114.1,39229,12.63,74858.0,3.37,-10.01,-10.57,0,*7A
1508022115.29,39230,12.63,74858.5,3.39,-9.93,-10.49,0,*40
1508022116.49,39231,12.63,74860.8,3.39,-9.97,-10.49,0,*45
1508022117.68,39232,12.69,74862.3,3.39,-9.97,-10.45,0,*4A
1508022118.87,39233,12.69,74862.8,3.39,-9.79,-10.45,0,*4B
1508022120.07,39234,12.69,74862.0,3.39,-9.79,-10.45,0,*4C
1508022121.29,39235,12.63,74858.3,3.39,-9.97,-10.63,0,*49
1508022122.52,39236,12.63,74860.5,3.39,-10.09,-10.67,0,*71
1508022123.71,39237,12.63,74856.3,3.39,-9.93,-10.53,0,*4C
1508022124.9,39238,12.63,74858.0,3.39,-9.93,-10.45,0,*44
1508022126.14,39239,12.69,74860.8,3.41,-9.83,-10.49,0,*47
1508022127.33,39240,12.63,74860.0,3.39,-9.93,-10.45,0,*4B
1508022128.55,39241,12.63,74856.5,3.37,-9.89,-10.49,0,*43
1508022129.77,39242,12.69,74862.3,3.37,-9.97,-10.53,0,*44
1508022130.97,39243,12.63,74860.8,3.39,-9.67,-10.35,0,*44
1508022132.22,39244,12.63,74860.0,3.37,-9.75,-10.41,0,*4D
1508022133.42,39245,12.63,74860.8,3.39,-9.79,-10.45,0,*4A
1508022134.64,39246,12.63,74860.3,3.39,-9.49,-10.19,0,*43
1508022135.86,39247,12.63,74858.3,3.39,-9.57,-10.23,0,*44
1508022137.06,39248,12.69,74860.3,3.39,-9.79,-10.35,0,*40
1508022138.25,39249,12.63,74858.0,3.39,-9.93,-10.45,0,*42
1508022139.44,39250,12.63,74858.0,3.39,-10.05,-10.53,0,*7A
1508022140.64,39251,12.63,74858.8,3.39,-9.79,-10.45,0,*4F
1508022141.84,39252,12.63,74856.5,3.39,-9.71,-10.31,0,*47
1508022143.08,39253,12.63,74860.0,3.37,-9.57,-10.23,0,*4F
1508022144.33,39254,12.69,74862.5,3.37,-9.61,-10.27,0,*49
1508022145.55,39255,12.63,74858.8,3.39,-9.57,-10.35,0,*40
1508022146.79,39256,12.69,74862.8,3.41,-9.57,-10.23,0,*4B
1508022148.04,39257,12.63,74858.3,3.41,-9.83,-10.49,0,*4F
1508022149.28,39258,12.63,74858.5,3.41,-9.83,-10.49,0,*40
1508022150.52,39259,12.63,74860.8,3.41,-9.79,-10.35,0,*4F
1508022151.72,39260,12.63,74856.0,3.39,-9.71,-10.45,0,*45
1508022152.91,39261,12.69,74860.5,3.39,-9.97,-10.53,0,*4B
1508022154.11,39262,12.63,74856.0,3.39,-9.79,-10.45,0,*4F
1508022155.32,39263,12.63,74856.8,3.39,-9.57,-10.31,0,*41
1508022156.55,39264,12.63,74860.0,3.39,-9.41,-10.05,0,*46
1508022157.77,39265,12.63,74858.5,3.41,-9.67,-10.31,0,*4B
1508022158.98,39266,12.63,74858.0,3.39,-9.71,-10.31,0,*40
1508022160.21,39267,12.63,74858.3,3.41,-9.71,-10.35,0,*4A
1508022161.41,39268,12.63,74860.8,3.39,-9.71,-10.23,0,*4D
1508022162.61,39269,12.63,74858.5,3.39,-9.67,-10.31,0,*48
1508022163.82,39270,12.69,74860.3,3.39,-9.57,-10.31,0,*43
1508022165.02,39271,12.63,74856.0,3.39,-9.67,-10.31,0,*41
1508022166.24,39272,12.69,74860.5,3.39,-9.53,-10.19,0,*4F
1508022167.49,39273,12.63,74858.5,3.41,-9.57,-10.23,0,*4C
1508022168.68,39274,12.63,74856.3,3.39,-9.67,-10.23,0,*47
1508022169.89,39275,12.63,74856.3,3.39,-9.57,-10.23,0,*45
1508022171.09,39276,12.63,74858.3,3.39,-9.67,-10.35,0,*42
1508022172.3,39277,12.69,74862.8,3.39,-9.57,-10.23,0,*47
1508022173.53,39278,12.63,74862.0,3.41,-9.67,-10.23,0,*44
1508022174.75,39279,12.63,74858.5,3.39,-9.37,-9.97,0,*78
1508022176.0,39280,12.69,74860.5,3.41,-9.37,-10.05,0,*42
1508022177.23,39281,12.63,74856.8,3.41,-9.67,-10.35,0,*45
1508022178.48,39282,12.63,74858.0,3.41,-9.57,-10.19,0,*4B
1508022179.71,39283,12.63,74862.5,3.41,-9.71,-10.31,0,*44
1508022180.94,39284,12.63,74860.5,3.41,-9.67,-10.35,0,*40
1508022182.14,39285,12.63,74860.8,3.39,-9.67,-10.31,0,*4A
1508022183.37,39286,12.63,74858.0,3.41,-9.79,-10.49,0,*46
1508022184.6,39287,12.63,74862.3,3.41,-9.79,-10.35,0,*4C
1508022185.79,39288,12.69,74862.0,3.39,-9.97,-10.53,0,*4C
1508022187.02,39289,12.69,74862.0,3.41,-9.79,-10.45,0,*45
1508022188.21,39290,12.63,74858.3,3.39,-9.67,-10.31,0,*4E
1508022189.42,39291,12.63,74860.3,3.39,-9.71,-10.35,0,*4C
1508022190.64,39292,12.63,74860.0,3.41,-9.93,-10.49,0,*47
1508022191.83,39293,12.63,74858.8,3.39,-9.93,-10.53,0,*42
1508022193.03,39294,12.63,74856.3,3.39,-9.79,-10.45,0,*46
1508022194.22,39295,12.63,74856.3,3.39,-9.93,-10.53,0,*44
1508022195.44,39296,12.63,74858.8,3.39,-10.05,-10.63,0,*73
1508022196.63,39297,12.63,74858.5,3.39,-9.97,-10.53,0,*42
1508022197.82,39298,12.63,74862.0,3.39,-9.97,-10.53,0,*4D
1508022199.07,39299,12.63,74860.5,3.37,-9.83,-10.49,0,*4C
1508022200.27,39300,12.63,74860.3,3.39,-9.71,-10.35,0,*45
1508022201.51,39301,12.63,74856.8,3.37,-9.83,-10.49,0,*4C
1508022202.73,39302,12.63,74856.8,3.37,-9.97,-10.57,0,*45
1508022203.95,39303,12.63,74854.8,3.37,-9.89,-10.49,0,*44
1508022205.21,39304,12.63,74856.3,3.37,-9.71,-10.41,0,*4C
1508022206.44,39305,12.63,74860.5,3.37,-9.71,-10.35,0,*4E
1508022207.67,39306,12.63,74858.3,3.37,-9.71,-10.35,0,*4D
1508022208.92,39307,12.63,74858.0,3.37,-9.75,-10.41,0,*4B
1508022210.16,39308,12.63,74856.3,3.37,-9.71,-10.27,0,*40
1508022211.41,39309,12.63,74858.8,3.37,-9.75,-10.41,0,*45
1508022212.66,39310,12.69,74860.0,3.37,-9.57,-10.27,0,*4D
1508022213.88,39311,12.63,74856.8,3.37,-9.75,-10.35,0,*4F
1508022215.13,39312,12.63,74858.3,3.37,-9.61,-10.27,0,*4A
1508022216.36,39313,12.63,74858.5,3.39,-9.53,-10.15,0,*45
1508022217.56,39314,12.63,74858.8,3.39,-9.67,-10.35,0,*47
1508022218.77,39315,12.63,74856.3,3.39,-9.57,-10.31,0,*41
1508022219.99,39316,12.63,74860.3,3.39,-9.49,-10.09,0,*46
1508022221.2,39317,12.63,74858.0,3.39,-9.57,-10.23,0,*40
1508022222.44,39318,12.63,74860.3,3.41,-9.71,-10.35,0,*43
1508022223.65,39319,12.63,74858.5,3.39,-9.83,-10.45,0,*47
1508022224.86,39320,12.63,74858.8,3.39,-9.71,-10.35,0,*47
1508022226.11,39321,12.63,74856.0,3.37,-9.89,-10.41,0,*4C
1508022227.32,39322,12.63,74856.5,3.37,-9.89,-10.49,0,*47
1508022228.58,39323,12.63,74862.0,3.37,-9.71,-10.41,0,*49
1508022229.79,39324,12.63,74860.3,3.37,-9.89,-10.49,0,*41
1508022231.04,39325,12.63,74856.0,3.37,-9.53,-10.27,0,*4F
1508022232.26,39326,12.63,74856.3,3.35,-9.57,-10.15,0,*4B
1508022233.51,39327,12.63,74860.8,3.37,-9.61,-10.23,0,*48
1508022234.74,39328,12.63,74856.5,3.37,-9.71,-10.27,0,*42
1508022235.95,39329,12.63,74860.3,3.35,-9.71,-10.27,0,*41
1508022237.18,39330,12.69,74862.8,3.37,-9.75,-10.35,0,*4C
1508022238.43,39331,12.63,74860.3,3.35,-9.83,-10.41,0,*45
1508022239.7,39332,12.63,74858.5,3.37,-9.83,-10.41,0,*44
1508022240.91,39333,12.63,74860.3,3.35,-9.57,-10.23,0,*4A
1508022242.16,39334,12.63,74858.3,3.37,-9.53,-10.15,0,*4E
1508022243.41,39335,12.63,74860.0,3.37,-9.41,-9.97,0,*7E
1508022244.66,39336,12.63,74856.0,3.37,-9.41,-10.01,0,*4A
1508022245.92,39337,12.63,74858.3,3.37,-9.71,-10.41,0,*4C
1508022247.14,39338,12.63,74856.5,3.39,-9.53,-10.09,0,*41
1508022248.35,39339,12.63,74860.5,3.39,-9.49,-10.05,0,*47
1508022249.55,39340,12.63,74860.0,3.39,-9.67,-10.23,0,*41
1508022250.77,39341,12.63,74858.8,3.39,-9.57,-10.19,0,*4A
1508022251.96,39342,12.63,74860.5,3.39,-9.67,-10.31,0,*40
1508022253.22,39343,12.63,74856.5,3.37,-9.71,-10.41,0,*4F
1508022254.48,39344,12.63,74860.8,3.37,-9.71,-10.41,0,*48
1508022255.7,39345,12.63,74856.8,3.37,-9.75,-10.49,0,*45
1508022256.92,39346,12.63,74860.0,3.35,-9.83,-10.49,0,*4D
1508022258.18,39347,12.63,74858.5,3.37,-9.71,-10.41,0,*4B
1508022259.42,39348,12.63,74856.3,3.37,-9.57,-10.23,0,*44
1508022260.66,39349,12.63,74860.5,3.37,-9.61,-10.23,0,*40
1508022261.91,39350,12.63,74860.0,3.37,-9.57,-10.35,0,*4A
1508022263.18,39351,12.63,74856.5,3.37,-9.83,-10.41,0,*41
1508022264.43,39352,12.63,74858.0,3.37,-9.75,-10.41,0,*4B
1508022265.68,39353,12.63,74858.5,3.37,-9.61,-10.27,0,*4F
1508022266.91,39354,12.63,74858.3,3.37,-9.71,-10.27,0,*49
1508022268.18,39355,12.69,74862.8,3.37,-9.83,-10.41,0,*45
1508022269.42,39356,12.63,74860.0,3.37,-9.57,-10.23,0,*4B
1508022270.67,39357,12.63,74856.8,3.37,-9.61,-10.27,0,*4B
1508022271.92,39358,12.63,74858.5,3.37,-9.45,-10.09,0,*4E
1508022273.17,39359,12.63,74858.3,3.37,-9.61,-10.27,0,*45
1508022274.4,39360,12.63,74858.3,3.37,-9.71,-10.35,0,*4D
1508022275.65,39361,12.63,74858.0,3.37,-9.61,-10.35,0,*4D
1508022276.88,39362,12.63,74862.0,3.37,-9.71,-10.27,0,*4C
1508022278.14,39363,12.63,74856.5,3.37,-9.71,-10.41,0,*4D
1508022279.37,39364,12.63,74856.8,3.37,-9.71,-10.35,0,*49
1508022280.61,39365,12.63,74856.8,3.37,-9.57,-10.23,0,*4B
1508022281.87,39366,12.63,74860.3,3.37,-9.41,-10.01,0,*4F
1508022283.12,39367,12.63,74858.3,3.37,-9.41,-10.09,0,*46
1508022284.34,39368,12.63,74856.8,3.35,-9.61,-10.27,0,*45
1508022285.58,39369,12.63,74858.3,3.37,-9.57,-10.23,0,*47
1508022286.82,39370,12.63,74858.5,3.37,-9.45,-9.97,0,*7B
1508022288.07,39371,12.63,74854.8,3.37,-9.53,-10.09,0,*42
1508022289.32,39372,12.63,74858.3,3.37,-9.53,-10.15,0,*4C
1508022290.55,39373,12.63,74854.3,3.37,-9.71,-10.35,0,*4F
1508022291.8,39374,12.69,74862.8,3.37,-9.45,-10.09,0,*40
1508022293.05,39375,12.63,74856.0,3.37,-9.45,-10.09,0,*41
1508022294.27,39376,12.63,74856.3,3.35,-9.41,-9.97,0,*7B
1508022295.52,39377,12.63,74856.5,3.37,-9.61,-10.35,0,*4A
1508022296.75,39378,12.63,74858.5,3.37,-9.57,-10.23,0,*47
1508022298.0,39379,12.63,74858.0,3.37,-9.61,-10.27,0,*47
1508022299.25,39380,12.63,74858.0,3.37,-9.53,-10.15,0,*41
1508022300.48,39381,12.63,74856.0,3.37,-9.31,-10.01,0,*41
1508022301.7,39382,12.63,74856.0,3.37,-9.31,-9.89,0,*7A
1508022302.96,39383,12.63,74856.3,3.37,-9.41,-10.01,0,*44
1508022304.17,39384,12.63,74862.0,3.37,-9.31,-9.97,0,*73
1508022305.42,39385,12.63,74852.3,3.37,-9.41,-10.09,0,*4A
1508022306.67,39386,12.63,74858.5,3.37,-9.45,-10.09,0,*4D
1508022307.86,39387,12.63,74858.8,3.39,-9.27,-9.93,0,*7D
1508022309.06,39388,12.63,74854.5,3.39,-9.27,-9.97,0,*76
1508022310.25,39389,12.63,74858.0,3.39,-9.27,-9.93,0,*73
1508022311.47,39390,12.63,74862.0,3.41,-9.27,-9.79,0,*70
1508022312.69,39391,12.63,74858.5,3.39,-9.27,-9.83,0,*7B
1508022313.91,39392,12.69,74860.8,3.39,-9.37,-9.93,0,*78
1508022315.13,39393,12.63,74860.3,3.39,-9.57,-10.19,0,*45
1508022316.33,39394,12.63,74858.5,3.39,-9.67,-10.35,0,*4F
1508022317.55,39395,12.63,74858.3,3.39,-9.49,-10.09,0,*4D
1508022318.77,39396,12.63,74858.5,3.39,-9.41,-10.09,0,*46
1508022319.99,39397,12.63,74856.3,3.39,-9.41,-10.05,0,*4B
1508022321.21,39398,12.63,74856.3,3.39,-9.37,-9.97,0,*76
1508022322.43,39399,12.63,74856.3,3.41,-9.27,-9.93,0,*7D
1508022323.66,39400,12.63,74856.0,3.39,-9.37,-9.93,0,*74
1508022324.91,39401,12.63,74852.0,3.41,-9.37,-9.93,0,*7A
1508022326.13,39402,12.63,74858.0,3.41,-9.27,-9.97,0,*7C
1508022327.34,39403,12.63,74860.3,3.39,-9.27,-9.83,0,*77
1508022328.56,39404,12.63,74858.3,3.39,-9.37,-9.97,0,*74
1508022329.81,39405,12.63,74856.5,3.41,-9.37,-9.97,0,*7A
1508022331.06,39406,12.63,74856.3,3.41,-9.23,-9.83,0,*79
1508022332.28,39407,12.63,74858.5,3.39,-9.53,-10.19,0,*4B
1508022333.49,39408,12.63,74858.3,3.39,-9.57,-10.23,0,*49
1508022334.71,39409,12.63,74856.5,3.39,-9.41,-10.05,0,*4B
1508022335.96,39410,12.63,74856.5,3.41,-9.53,-10.23,0,*4B
1508022337.15,39411,12.63,74856.3,3.39,-9.27,-9.97,0,*71
1508022338.37,39412,12.63,74856.8,3.39,-9.41,-10.09,0,*4D
1508022339.6,39413,12.63,74856.8,3.39,-9.49,-10.19,0,*45
1508022340.85,39414,12.63,74858.8,3.41,-9.53,-10.19,0,*46
1508022342.1,39415,12.63,74854.5,3.41,-9.27,-9.83,0,*7F
1508022343.29,39416,12.63,74856.5,3.39,-9.27,-9.93,0,*72
1508022344.51,39417,12.63,74854.3,3.39,-9.27,-9.83,0,*72
1508022345.72,39418,12.63,74860.8,3.39,-9.53,-10.09,0,*44
1508022346.95,39419,12.63,74858.0,3.41,-9.27,-9.79,0,*76
1508022348.16,39420,12.63,74854.5,3.39,-9.53,-10.09,0,*4F
1508022349.38,39421,12.63,74856.5,3.39,-9.53,-10.23,0,*46
1508022350.6,39422,12.63,74856.5,3.39,-9.37,-9.97,0,*70
1508022351.84,39423,12.63,74858.0,3.41,-9.23,-9.83,0,*7E
1508022353.12,39424,12.63,74856.5,3.41,-9.11,-9.53,0,*75
1508022354.35,39425,12.63,74856.3,3.39,-9.15,-9.79,0,*77
1508022355.57,39426,12.63,74854.8,3.41,-9.23,-9.79,0,*7E
1508022356.79,39427,12.63,74856.8,3.39,-9.15,-9.79,0,*75
1508022358.02,39428,12.63,74854.3,3.41,-9.01,-9.67,0,*7F
1508022359.24,39429,12.63,74854.8,3.41,-9.23,-9.79,0,*71
1508022360.5,39430,12.63,74856.5,3.41,-9.37,-10.05,0,*4F
1508022361.75,39431,12.63,74854.0,3.41,-9.37,-10.09,0,*42
1508022363.0,39432,12.63,74854.3,3.41,-9.41,-10.05,0,*4C
1508022364.26,39433,12.63,74856.5,3.41,-9.41,-10.05,0,*4D
1508022365.48,39434,12.63,74858.0,3.41,-9.23,-9.71,0,*75
1508022366.73,39435,12.63,74856.8,3.41,-9.37,-9.97,0,*79
1508022367.98,39436,12.63,74856.0,3.41,-9.41,-10.05,0,*48
1508022369.17,39437,12.63,74856.8,3.39,-9.27,-9.93,0,*71
1508022370.4,39438,12.63,74852.5,3.39,-9.15,-9.71,0,*73
1508022371.64,39439,12.63,74856.8,3.41,-9.23,-9.83,0,*75
1508022372.87,39440,12.63,74856.8,3.41,-9.23,-9.71,0,*76
1508022374.09,39441,12.63,74858.5,3.41,-9.23,-9.79,0,*7F
1508022375.31,39442,12.63,74856.3,3.41,-9.23,-9.71,0,*74
1508022376.56,39443,12.63,74858.5,3.41,-9.23,-9.83,0,*78
1508022377.81,39444,12.63,74856.0,3.41,-9.41,-9.97,0,*7E
1508022379.03,39445,12.63,74856.5,3.41,-9.27,-9.93,0,*7B
1508022380.28,39446,12.63,74858.5,3.41,-9.37,-9.97,0,*7D
1508022381.47,39447,12.63,74856.0,3.43,-9.23,-9.75,0,*77
1508022382.69,39448,12.63,74856.3,3.43,-9.19,-9.61,0,*74
1508022383.93,39449,12.63,74856.8,3.41,-9.23,-9.83,0,*72
1508022385.18,39450,12.63,74856.5,3.41,-9.41,-9.97,0,*7B
1508022386.43,39451,12.63,74856.0,3.41,-9.41,-10.05,0,*49
1508022387.68,39452,12.63,74854.5,3.41,-9.49,-10.09,0,*4E
1508022388.93,39453,12.63,74858.8,3.41,-9.49,-10.19,0,*4E
1508022390.18,39454,12.63,74858.8,3.41,-9.49,-10.23,0,*40
1508022391.42,39455,12.63,74856.5,3.41,-9.57,-10.23,0,*4E
1508022392.68,39456,12.63,74856.3,3.41,-9.49,-10.19,0,*4B
1508022393.9,39457,12.63,74858.0,3.41,-9.23,-9.79,0,*78
1508022395.16,39458,12.63,74856.3,3.41,-9.15,-9.71,0,*7A
1508022396.4,39459,12.63,74852.8,3.41,-9.23,-9.83,0,*73
1508022397.65,39460,12.63,74858.5,3.41,-9.23,-9.83,0,*79
1508022398.9,39461,12.63,74856.3,3.41,-9.27,-9.83,0,*7C
1508022400.12,39462,12.63,74858.5,3.41,-9.27,-9.67,0,*75
1508022401.37,39463,12.63,74858.5,3.41,-9.37,-9.93,0,*7E
1508022402.59,39464,12.63,74860.0,3.39,-9.27,-9.83,0,*76
1508022403.84,39465,12.63,74858.0,3.41,-9.15,-9.71,0,*74
1508022405.09,39466,12.63,74856.0,3.41,-9.15,-9.79,0,*7F
1508022406.35,39467,12.63,74858.8,3.41,-9.15,-9.79,0,*7E
1508022407.57,39468,12.63,74858.3,3.41,-9.27,-9.79,0,*70
1508022408.79,39469,12.63,74852.5,3.41,-9.23,-9.79,0,*75
1508022410.02,39470,12.63,74858.0,3.41,-9.27,-9.93,0,*7D
1508022411.26,39471,12.63,74858.3,3.41,-9.27,-9.83,0,*7D
1508022412.51,39472,12.63,74856.8,3.41,-9.37,-9.93,0,*7E
1508022413.76,39473,12.63,74854.5,3.41,-9.27,-9.83,0,*7F
1508022415.01,39474,12.63,74856.3,3.43,-9.11,-9.61,0,*73
1508022416.23,39475,12.63,74856.5,3.43,-9.11,-9.67,0,*74
1508022417.42,39476,12.63,74858.5,3.43,-9.19,-9.75,0,*7C
1508022418.61,39477,12.63,74858.3,3.43,-9.23,-9.93,0,*7C
1508022419.83,39478,12.63,74856.3,3.43,-9.45,-10.05,0,*44
1508022421.05,39479,12.63,74858.8,3.43,-9.37,-9.93,0,*77
1508022422.25,39480,12.63,74854.0,3.43,-9.31,-9.93,0,*77
1508022423.44,39481,12.63,74856.3,3.43,-9.23,-9.75,0,*7D
1508022424.63,39482,12.63,74860.8,3.43,-9.31,-9.93,0,*75
1508022425.88,39483,12.63,74856.5,3.41,-9.41,-9.97,0,*75
1508022427.13,39484,12.63,74858.5,3.41,-9.27,-9.83,0,*77
1508022428.38,39485,12.63,74858.0,3.41,-9.15,-9.67,0,*7D
1508022429.6,39486,12.63,74858.8,3.39,-9.11,-9.67,0,*75
1508022430.8,39487,12.63,74856.0,3.43,-9.19,-9.75,0,*72
1508022431.99,39488,12.63,74856.8,3.43,-9.31,-9.79,0,*7B
1508022433.18,39489,12.63,74858.0,3.43,-9.05,-9.75,0,*71
1508022434.41,39490,12.63,74858.0,3.43,-9.11,-9.67,0,*7F
1508022435.63,39491,12.63,74858.0,3.45,-9.19,-9.67,0,*70
1508022436.85,39492,12.63,74860.8,3.43,-9.11,-9.75,0,*7E
1508022438.1,39493,12.63,74856.0,3.41,-9.01,-9.53,0,*78
1508022439.32,39494,12.63,74854.5,3.43,-8.97,-9.49,0,*78
1508022440.51,39495,12.63,74856.0,3.43,-9.19,-9.67,0,*72
1508022441.73,39496,12.63,74858.8,3.43,-9.05,-9.61,0,*7A
1508022442.92,39497,12.63,74858.3,3.43,-9.19,-9.79,0,*7F
1508022444.15,39498,12.63,74858.5,3.43,-9.11,-9.75,0,*74
1508022445.34,39499,12.63,74858.8,3.43,-9.19,-9.75,0,*7D
1508022446.55,39500,12.63,74856.0,3.43,-9.19,-9.61,0,*79
1508022447.78,39501,12.63,74856.5,3.43,-9.11,-9.67,0,*76
1508022448.97,39502,12.63,74856.3,3.43,-9.19,-9.79,0,*72
1508022450.16,39503,12.63,74854.0,3.43,-9.19,-9.75,0,*7F
1508022451.38,39504,12.63,74856.8,3.43,-8.97,-9.45,0,*7C
1508022452.6,39505,12.63,74856.8,3.43,-9.05,-9.61,0,*71
1508022453.79,39506,12.63,74856.8,3.43,-9.31,-9.93,0,*78
1508022454.98,39507,12.63,74856.5,3.43,-9.23,-9.79,0,*7E
1508022456.23,39508,12.63,74856.5,3.43,-9.11,-9.61,0,*79
1508022457.42,39509,12.63,74856.3,3.43,-9.19,-9.79,0,*79
1508022458.64,39510,12.63,74856.8,3.43,-9.05,-9.61,0,*75
1508022459.86,39511,12.63,74856.0,3.43,-8.93,-9.61,0,*7A
1508022461.06,39512,12.63,74858.3,3.43,-9.19,-9.79,0,*73
1508022462.25,39513,12.63,74856.0,3.43,-9.19,-9.89,0,*7D
1508022463.47,39514,12.63,74856.8,3.43,-8.85,-9.37,0,*7B
1508022464.69,39515,12.63,74858.0,3.43,-9.11,-9.67,0,*73
1508022465.89,39516,12.63,74858.0,3.43,-9.23,-9.79,0,*7E
1508022467.11,39517,12.63,74856.5,3.45,-9.23,-9.75,0,*75
1508022468.32,39518,12.63,74856.3,3.45,-9.23,-9.89,0,*79
1508022469.51,39519,12.63,74856.3,3.43,-9.23,-9.89,0,*7E
1508022470.73,39520,12.63,74858.8,3.45,-9.19,-9.89,0,*7B
1508022471.96,39521,12.63,74858.3,3.43,-9.37,-10.01,0,*48
1508022473.15,39522,12.63,74854.5,3.43,-9.31,-9.93,0,*7E
1508022474.35,39523,12.63,74856.3,3.43,-9.31,-9.79,0,*7B
1508022475.54,39524,12.63,74852.8,3.43,-9.23,-9.93,0,*7B
1508022476.79,39525,12.63,74858.0,3.45,-8.85,-9.45,0,*7A
1508022477.98,39526,12.63,74858.0,3.43,-9.05,-9.67,0,*76
1508022479.21,39527,12.63,74856.0,3.45,-9.23,-9.93,0,*7E
1508022480.4,39528,12.63,74854.5,3.43,-9.23,-9.79,0,*73
1508022481.59,39529,12.63,74856.5,3.43,-9.23,-9.79,0,*72
1508022482.78,39530,12.63,74852.5,3.43,-9.23,-9.75,0,*76
1508022483.98,39531,12.63,74856.5,3.43,-9.31,-9.93,0,*7C
1508022485.17,39532,12.63,74854.5,3.43,-9.31,-9.93,0,*7F
1508022486.36,39533,12.63,74854.3,3.43,-9.23,-9.79,0,*79
1508022487.55,39534,12.63,74854.0,3.43,-9.23,-9.89,0,*71
1508022488.74,39535,12.63,74858.5,3.43,-9.23,-9.89,0,*70
1508022489.99,39536,12.63,74858.3,3.41,-9.27,-9.83,0,*7F
1508022491.23,39537,12.63,74856.0,3.41,-8.97,-9.49,0,*72
1508022492.49,39538,12.63,74858.5,3.41,-9.11,-9.71,0,*79
1508022493.71,39539,12.63,74858.3,3.39,-9.37,-9.93,0,*7F
1508022494.93,39540,12.63,74856.8,3.41,-9.27,-9.97,0,*7B
1508022496.18,39541,12.63,74858.5,3.41,-9.11,-9.71,0,*77
1508022497.43,39542,12.63,74856.5,3.41,-9.11,-9.71,0,*74
1508022498.63,39543,12.63,74856.8,3.43,-9.19,-9.79,0,*77
1508022499.88,39544,12.63,74858.5,3.41,-9.15,-9.79,0,*7E
1508022501.14,39545,12.63,74856.8,3.41,-9.15,-9.71,0,*77
1508022502.39,39546,12.63,74856.0,3.41,-9.15,-9.67,0,*73
1508022503.63,39547,12.63,74856.0,3.41,-8.75,-9.41,0,*71
1508022504.86,39548,12.63,74858.8,3.41,-9.01,-9.67,0,*78
1508022506.11,39549,12.63,74856.8,3.41,-9.11,-9.71,0,*7F
1508022507.37,39550,12.63,74856.8,3.41,-9.15,-9.79,0,*7B
1508022508.59,39551,12.63,74856.0,3.41,-9.23,-9.79,0,*7F